GW1838 Weather Reports


Display with metric or nautical units.
time (UTC)temp
F
wind
direction
speed
MPH
gust
MPH
rain 1hr
in
rain 24hr
in
rain mn
in
humidity
%
barometer
mb
20260505214805 62 204 16.0 32.0 0.00 0.00 0.00 75 1010.3
20260505205804 62 219 17.0 25.0 0.00 0.00 0.00 75 1009.9
20260505205305 62 183 17.0 29.0 0.00 0.00 0.00 76 1009.9
20260505204804 62 195 16.0 23.0 0.00 0.00 0.00 76 1009.9
20260505204304 62 208 14.0 26.0 0.00 0.00 0.00 76 1009.9
20260505202804 61 203 12.0 23.0 0.00 0.00 0.00 78 1009.9
20260505202306 61 219 12.0 24.0 0.00 0.00 0.00 79 1009.9
20260505201804 60 192 14.0 24.0 0.00 0.00 0.00 78 1009.9
20260505200305 60 210 14.0 23.0 0.00 0.00 0.00 79 1009.9
20260505195305 60 197 16.0 21.0 0.00 0.00 0.00 79 1010.1
20260505194304 60 201 17.0 26.0 0.00 0.00 0.00 78 1010.2
20260505193804 61 215 15.0 23.0 0.00 0.00 0.00 78 1010.2
20260505193304 61 211 13.0 24.0 0.00 0.00 0.00 78 1010.3
20260505192805 61 210 16.0 25.0 0.00 0.00 0.00 78 1010.5
20260505192305 61 211 10.0 20.0 0.00 0.00 0.00 79 1010.6
20260505191805 60 193 13.0 26.0 0.00 0.00 0.00 80 1010.6
20260505190304 60 193 12.0 20.0 0.00 0.00 0.00 80 1010.6
20260505185804 60 195 14.0 22.0 0.00 0.00 0.00 80 1010.6
20260505184805 59 192 12.0 21.0 0.00 0.00 0.00 79 1010.7
20260505183805 60 202 13.0 20.0 0.00 0.00 0.00 79 1010.7
20260505182306 60 201 13.0 24.0 0.00 0.00 0.00 79 1010.8
20260505181305 60 192 12.0 20.0 0.00 0.00 0.00 79 1011.0
20260505180804 60 197 11.0 23.0 0.00 0.00 0.00 80 1011.0
20260505173805 60 201 11.0 20.0 0.00 0.00 0.00 80 1011.2
20260505172306 59 192 11.0 18.0 0.00 0.00 0.00 81 1011.1
20260505171304 59 195 14.0 23.0 0.00 0.00 0.00 81 1011.1
20260505170304 59 195 13.0 21.0 0.00 0.00 0.00 81 1010.9
20260505165804 59 198 12.0 20.0 0.00 0.00 0.00 81 1011.0
20260505164804 59 206 11.0 20.0 0.00 0.00 0.00 80 1011.1
20260505163304 59 209 12.0 21.0 0.00 0.00 0.00 81 1011.4
20260505162804 59 213 11.0 17.0 0.00 0.00 0.00 81 1011.5
20260505152804 58 202 12.0 18.0 0.00 0.00 0.00 83 1011.7
20260505150805 58 226 10.0 22.0 0.00 0.00 0.00 83 1011.8
20260505150304 58 203 13.0 24.0 0.00 0.00 0.00 83 1011.8
20260505123304 59 201 7.0 12.0 0.00 0.00 0.00 84 1011.5
20260505122805 59 222 6.0 10.0 0.00 0.00 0.00 85 1011.5
20260505122305 58 206 5.0 12.0 0.00 0.00 0.00 85 1011.4
20260505121304 58 197 5.0 12.0 0.00 0.00 0.00 88 1011.4
20260505120806 57 193 5.0 10.0 0.00 0.00 0.00 88 1011.4
20260505115804 56 201 8.0 13.0 0.00 0.00 0.00 87 1011.4
20260505114304 56 213 7.0 15.0 0.00 0.00 0.00 90 1011.3
20260505113304 55 200 7.0 13.0 0.00 0.00 0.00 90 1011.4
20260505111804 54 194 7.0 15.0 0.00 0.00 0.00 90 1011.3
20260505111304 54 203 9.0 16.0 0.00 0.00 0.00 90 1011.3
20260505110804 55 205 9.0 18.0 0.00 0.00 0.00 90 1011.4
20260505110304 55 198 7.0 13.0 0.00 0.00 0.00 89 1011.3
20260505101807 55 207 5.0 7.0 0.00 0.00 0.00 89 1011.0
20260505095807 57 219 5.0 7.0 0.00 0.00 0.00 90 1010.8
20260505095307 57 216 6.0 10.0 0.00 0.00 0.00 90 1010.8
20260505094807 57 208 5.0 10.0 0.00 0.00 0.00 90 1010.7
20260505092307 57 223 6.0 12.0 0.00 0.00 0.00 90 1010.6
20260505091807 57 226 6.0 12.0 0.00 0.00 0.00 90 1010.6
20260505085307 57 211 7.0 13.0 0.00 0.00 0.00 90 1010.5
20260505084807 57 203 6.0 14.0 0.00 0.00 0.00 90 1010.5
20260505084307 57 219 6.0 12.0 0.00 0.00 0.00 90 1010.5
20260505082807 57 217 7.0 15.0 0.00 0.00 0.00 89 1010.6
20260505081308 57 215 9.0 14.0 0.00 0.00 0.00 90 1010.4
20260505080807 57 217 9.0 14.0 0.00 0.00 0.00 90 1010.4
20260505074307 56 210 10.0 15.0 0.00 0.00 0.00 91 1010.4
20260505073807 55 206 7.0 10.0 0.00 0.00 0.00 91 1010.4
20260505073306 55 207 7.0 12.0 0.00 0.00 0.00 92 1010.4
20260505072308 54 190 9.0 13.0 0.00 0.00 0.00 91 1010.4
20260505070807 55 206 7.0 10.0 0.00 0.00 0.00 90 1010.3
20260505070307 55 203 6.0 13.0 0.00 0.00 0.00 90 1010.3
20260505064807 56 208 7.0 12.0 0.00 0.00 0.00 90 1010.3
20260505062807 56 213 8.0 15.0 0.00 0.00 0.00 90 1010.3
20260505062307 56 221 6.0 13.0 0.00 0.00 0.00 90 1010.4
20260505061307 56 223 6.0 12.0 0.00 0.00 0.00 90 1010.4
20260505055807 55 216 7.0 12.0 0.00 0.00 0.00 90 1010.5
20260505055308 55 201 9.0 15.0 0.00 0.00 0.00 90 1010.5
20260505054807 55 201 9.0 15.0 0.00 0.00 0.00 90 1010.5
20260505054307 54 192 12.0 16.0 0.00 0.00 0.00 90 1010.7
20260505052807 54 195 11.0 17.0 0.00 0.00 0.00 90 1010.7
20260505052308 54 200 10.0 18.0 0.00 0.00 0.00 90 1010.8
20260505050307 54 200 9.0 14.0 0.00 0.00 0.00 89 1011.0
20260505041307 53 200 6.0 13.0 0.00 0.00 0.00 90 1011.3
20260505040835 53 199 9.0 13.0 0.00 0.00 0.00 90 1011.3
20260505033306 53 191 6.0 14.0 0.00 0.00 0.00 90 1011.3
20260505031307 54 198 9.0 14.0 0.00 0.00 0.00 89 1011.5
20260505030806 54 198 6.0 13.0 0.00 0.00 0.00 89 1011.5
20260505030307 54 193 9.0 14.0 0.00 0.00 0.00 89 1011.5
20260505025807 54 198 9.0 16.0 0.00 0.00 0.00 88 1011.5
20260505025306 55 193 9.0 17.0 0.00 0.00 0.00 87 1011.6
20260505024306 55 197 10.0 18.0 0.00 0.00 0.00 87 1011.5
20260505023807 55 203 9.0 17.0 0.00 0.00 0.00 87 1011.6
20260505021307 56 206 11.0 23.0 0.00 0.00 0.00 85 1011.6
20260505015307 57 206 11.0 16.0 0.00 0.00 0.00 83 1011.5
20260505014307 57 216 9.0 16.0 0.00 0.00 0.00 82 1011.5
20260505013307 56 199 8.0 13.0 0.00 0.00 0.00 83 1011.4
20260505012808 56 186 9.0 13.0 0.00 0.00 0.00 83 1011.4
20260505011806 56 193 7.0 12.0 0.00 0.00 0.00 84 1011.3
20260505010807 57 206 6.0 12.0 0.00 0.00 0.00 82 1011.2
20260505005306 57 209 7.0 14.0 0.00 0.00 0.00 82 1011.0
20260505004806 57 205 6.0 12.0 0.00 0.00 0.00 82 1011.0
20260505004306 57 210 7.0 14.0 0.00 0.00 0.00 83 1010.9
20260505003806 56 207 6.0 12.0 0.00 0.00 0.00 84 1011.0
20260505002806 55 207 9.0 14.0 0.00 0.00 0.00 86 1010.9
20260505000307 54 196 9.0 17.0 0.00 0.00 0.00 87 1010.6
20260504234807 54 200 8.0 14.0 0.00 0.00 0.00 87 1010.6
20260504234306 54 197 6.0 17.0 0.00 0.00 0.00 86 1010.6
20260504233807 55 193 9.0 20.0 0.00 0.00 0.00 86 1010.6
20260504233306 55 209 6.0 14.0 0.00 0.00 0.00 86 1010.6
20260504232807 55 197 8.0 14.0 0.00 0.00 0.00 86 1010.7
20260504232307 55 199 10.0 14.0 0.00 0.00 0.00 85 1010.6
20260504231807 55 200 9.0 16.0 0.00 0.00 0.00 85 1010.7
20260504231306 55 196 9.0 16.0 0.00 0.00 0.00 85 1010.6
20260504230307 55 213 7.0 13.0 0.00 0.00 0.00 84 1010.7
20260504225806 55 199 7.0 14.0 0.00 0.00 0.00 84 1010.5
20260504225306 56 195 8.0 15.0 0.00 0.00 0.00 84 1010.5
20260504223807 56 203 12.0 20.0 0.00 0.00 0.00 83 1010.5
20260504223306 56 216 9.0 16.0 0.00 0.00 0.00 83 1010.5
20260504222306 56 203 10.0 17.0 0.00 0.00 0.00 82 1010.4
20260504221806 56 199 10.0 17.0 0.00 0.00 0.00 83 1010.4
20260504221307 56 201 11.0 18.0 0.00 0.00 0.00 82 1010.4
20260504220807 56 201 10.0 20.0 0.00 0.00 0.00 82 1010.4